User: anonymous   Login
Location: Goodsell Observatory
(44.4617°N, 93.1522°W)
Time: 14:27:36
(UTC-05:00)
Language:

Hubble Space Telescope - Orbit

View from above orbital plane
View from above orbital plane
View from above satellite
View from above satellite

Ground track
Ground track

The orbit data is extracted from the following two-line orbital elements,

1 20580U 90037B   15115.48358297  .00003379  00000-0  20713-3 0  9991
2 20580 028.4693 141.6266 0003032 036.5118 110.5242 15.07258999171859
Epoch (UTC): 25 April 2015 11:36:21
Eccentricity: 0.0003032
inclination: 28.4693°
perigee height: 542 km
apogee height: 546 km
right ascension of ascending node: 141.6266°
argument of perigee: 36.5118°
revolutions per day: 15.07258999
mean anomaly at epoch: 110.5242°
orbit number at epoch: 17185

The dashed part of the orbit path shows where the satellite is in the earth's shadow,  

DLR